Regional Weather Roundup
Issued by NWS Sterling, VA

Home | Current Version | Previous Version | Graphics & Text | Print | Product List | Glossary On
Versions: 1 2 3 4 5 6 7 8 9 10 11 12 13 14 15 16 17 18 19 20 21 22 23 24 25 26 27 28 29 30 31 32 33 34 35 36 37 38 39 40 41 42 43 44 45 46 47 48 49 50
000
ASUS41 KLWX 290210
RWRLWX

REGIONAL WEATHER ROUNDUP
NATIONAL WEATHER SERVICE BALTIMORE MD/WASHINGTON DC
1000 PM EDT FRI AUG 28 2015

Note: "FAIR" indicates few or no clouds below 12,000 feet
with no significant weather and/or obstructions to visibility.
 TC=TEMPERATURE CELSIUS

 * =Non NWS site. Station does not report precipitation (e.g. rain,
    snow, etc.), thunder, or fog.

DCZ001-MDZ009-015-VAZ040>042-051-053>054-290300-
WASHINGTON METRO

CITY           SKY/WX    TMP DP  RH WIND       PRES   REMARKS
WASHINGTON NAT PTCLDY    74  60  61 S5        30.20R
DULLES         PTCLDY    72  61  68 SE6       30.19R
ANDREWS AFB    CLEAR     67  61  81 SE3       30.19R
FT BELVOIR     CLEAR     67  62  85 CALM      30.19R
QUANTICO       MOCLDY    75  62  64 S13       30.20R
COLLEGE PARK*  CLEAR     68  61  77 CALM      30.19R
LEESBURG*      CLEAR     73  64  73 S9        30.21R
MANASSAS*      CLOUDY    72  64  78 CALM      30.19R
GAITHERSBURG*  CLEAR     66  57  72 SE6       30.24R

$$

MDZ006>007-011-014-290300-
BALTIMORE METRO

CITY           SKY/WX    TMP DP  RH WIND       PRES   REMARKS
BWI AIRPORT    CLEAR     67  60  78 CALM      30.19R
MD SCIENCE CTR   N/A     75  57  53 MISG      30.20R
MARTIN STATE   CLEAR     70  66  88 CALM      30.20R
ANNAPOLIS      CLEAR     71  63  75 CALM      30.19R
FORT MEADE*    CLEAR     63  61  94 CALM      30.22R

$$

MDZ012-015-019>023-290300-
MARYLAND EASTERN SHORE

CITY           SKY/WX    TMP DP  RH WIND       PRES   REMARKS
OCEAN CITY     CLEAR     62  57  83 CALM      30.21R
SALISBURY      CLEAR     65  59  81 CALM      30.21R
BAY BRIDGE AP*   N/A     70  59  68 CALM      30.20R

$$

MDZ017>025-290300-
SOUTHERN MARYLAND

CITY           SKY/WX    TMP DP  RH WIND       PRES   REMARKS
PATUXENT RIVER PTCLDY    64  59  83 CALM      30.19R
ST INIGOES     CLEAR     63  59  87 CALM      30.19R
LEONARDTOWN*   CLEAR     64  57  77 CALM      30.22R

$$

MDZ003>005-290300-
NORTH CENTRAL MARYLAND

CITY           SKY/WX    TMP DP  RH WIND       PRES   REMARKS
FREDERICK*     NOT AVBL
HAGERSTOWN APT CLEAR     71  58  63 E6        30.19R
WESTMINSTER*   CLEAR     72  61  68 SE6       30.21R

$$

MDZ501>502-290300-
WESTERN MARYLAND

CITY           SKY/WX    TMP DP  RH WIND       PRES   REMARKS
OAKLAND*       CLEAR     63  52  67 SE5       30.26S
CUMBERLAND*    CLEAR     70  61  73 CALM      30.22R

$$

VAZ025>031-290300-
SHENANDOAH VALLEY

CITY           SKY/WX    TMP DP  RH WIND       PRES   REMARKS
WINCHESTER*    PTCLDY    68  61  77 CALM      30.19R
FRONT ROYAL*   MOCLDY    68  61  77 CALM      30.18R
LURAY*         MOCLDY    68  61  77 CALM      30.20R
NEW MARKET*    CLOUDY    68  63  83 CALM      30.18R
STAUNTON*      PTCLDY    74  61  65 CALM      30.22R
WAYNESBORO*    FAIR      70  62  76 CALM      30.22R

$$

WVZ021-048>050-054>055-290300-
EASTERN WEST VIRGINIA PANHANDLE

CITY           SKY/WX    TMP DP  RH WIND       PRES   REMARKS
MARTINSBURG    PTCLDY    66  60  81 CALM      30.19R
PETERSBURG*    PTCLDY    66  62  85 NW3       30.20R

$$

VAZ036>039-050-290300-
CENTRAL FOOTHILLS

CITY           SKY/WX    TMP DP  RH WIND       PRES   REMARKS
CHARLOTTESVILL MOCLDY    71  61  70 CALM      30.19R
CULPEPER*      MOCLDY    66  63  90 CALM      30.20R
ORANGE*        PTCLDY    68  63  83 CALM      30.21R
GORDONSVILLE*  CLOUDY    68  65  90 CALM      30.18R
WARRENTON*     MOCLDY    72  65  78 CALM      30.19R

$$

VAZ055>057-290300-
NORTH AND CENTRAL PIEDMONT

CITY           SKY/WX    TMP DP  RH WIND       PRES   REMARKS
FREDERICKSBRG* MOCLDY    73  64  75 SE5       30.18S
STAFFORD*      CLOUDY    68  63  84 CALM      30.23R

$$

NCZ024-NYZ072-PAZ021-071-VAZ022-071-290300-
OTHER REGIONAL OBSERVATIONS

CITY           SKY/WX    TMP DP  RH WIND       PRES   REMARKS
NEW YORK CITY  CLEAR     75  51  43 VRB3      30.22R
PHILADELPHIA   PTCLDY    77  54  44 N3        30.19R
PITTSBURGH     MOCLDY    67  56  67 CALM      30.18R
ROANOKE        PTCLDY    74  60  61 CALM      30.22R
RICHMOND       CLEAR     71  59  65 SE5       30.20R
RALEIGH        MOCLDY    73  59  61 SE6       30.19R

$$

ANZ530>537-290300-
MARINE OBSERVATIONS

STATION/POSITION TIME  TEMP    WIND        PRES
                       AIR SEA DIR/SP/G
                 (UTC) (F)     (DEG/KT/KT) (MB)
THOMAS PT LIGHT  NOT AVBL

$$



USA.gov is the U.S. government's official web portal to all federal, state and local government web resources and services.